Location: Hoover
(45.1124°N, 103.2678°W)
Time: 10:37:44
(UTC+00:00)

N. Korean satellite - Pass Details

Date: 01 December 2020
Orbit: 453 x 502 km, 97.2° (Epoch: 19 January)

Event Time Altitude Azimuth Distance (km) Brightness Sun altitude
Rises 11:59:27 0° 19° (NNE) 2,565 10.4 -22.7°
Reaches altitude 10° 12:01:37 10° 27° (NNE) 1,687 9.5 -22.3°
Maximum altitude 12:05:03 39° 98° (E) 753 8.0 -21.7°
Drops below altitude 10° 12:08:29 10° 169° (SSE) 1,694 9.6 -21.1°
Sets 12:10:40 0° 177° (S) 2,577 10.4 -20.8°
